Location: Moscow
(30.9132°N, 94.8252°W)
Time: 00:08:38
(UTC+00:00)

Sich 1 Rocket - Pass Details

Date: 15 November 2025
Orbit: 611 x 646 km, 82.5° (Epoch: 11 December)

Event Time Altitude Azimuth Distance (km) Brightness Sun altitude
Rises 00:47:15 0° 176° (S) 2,917 7.1 -18.4°
Reaches altitude 10° 00:49:29 10° 172° (S) 2,018 6.2 -18.9°
Maximum altitude 00:53:54 59° 93° (E) 740 3.6 -19.8°
Enters shadow 00:55:44 33° 28° (NNE) 1,081 4.4 -20.2°
